Total_Precipitation_Accumulation
0.00 0.00 0.00 0.00 0.00 0.00 0.00 0.00 0.00 0.00 0.00 0.00 0.00 0.00 0.00 0.01 0.01 0.03 0.02 0.03 0.04 0.05 0.07 0.09 0.10 0.10 0.18 0.22 0.26 0.31 0.32 0.39 0.52 0.44 0.23 0.22 0.37 0.59 0.74 0.64 0.59 0.72 0.77
0.00 0.00 0.00 0.00 0.00 0.00 0.00 0.00 0.00 0.00 0.00 0.00 0.00 0.01 0.01 0.01 0.01 0.01 0.01 0.01 0.02 0.04 0.06 0.09 0.12 0.14 0.17 0.24 0.33 0.39 0.37 0.34 0.37 0.42 0.28 0.21 0.33 0.50 0.59 0.51 0.55 0.54 0.57
0.00 0.00 0.00 0.00 0.00 0.00 0.00 0.00 0.00 0.00 0.00 0.00 0.00 0.00 0.00 0.00 0.01 0.01 0.01 0.02 0.02 0.02 0.05 0.09 0.09 0.12 0.16 0.23 0.30 0.34 0.46 0.58 0.60 0.48 0.29 0.31 0.44 0.52 0.67 0.69 0.59 0.54 0.54
0.00 0.00 0.00 0.00 0.00 0.00 0.00 0.00 0.00 0.00 0.00 0.00 0.00 0.00 0.01 0.01 0.01 0.01 0.02 0.08 0.13 0.13 0.12 0.10 0.10 0.17 0.16 0.16 0.25 0.40 0.34 0.45 0.67 0.76 0.55 0.46 0.52 0.70 0.62 0.65 0.74 0.65 0.63
0.00 0.00 0.00 0.00 0.00 0.00 0.00 0.00 0.00 0.00 0.00 0.00 0.01 0.01 0.01 0.02 0.04 0.05 0.10 0.12 0.14 0.21 0.31 0.35 0.37 0.38 0.38 0.33 0.34 0.35 0.43 0.54 0.52 0.63 0.82 0.77 0.65 0.76 0.79 0.60 0.39 0.55 0.64
0.00 0.00 0.00 0.00 0.00 0.00 0.00 0.00 0.00 0.00 0.00 0.00 0.01 0.03 0.04 0.03 0.10 0.08 0.13 0.18 0.19 0.21 0.23 0.24 0.42 0.68 0.60 0.57 0.53 0.48 0.45 0.55 0.55 0.50 0.55 0.59 0.59 0.44 0.39 0.37 0.43 0.52 0.70
0.00 0.00 0.00 0.00 0.00 0.00 0.00 0.00 0.00 0.00 0.00 0.01 0.03 0.04 0.03 0.03 0.09 0.06 0.08 0.10 0.11 0.16 0.26 0.29 0.38 0.48 0.58 0.65 0.80 0.69 0.53 0.54 0.50 0.53 0.44 0.31 0.37 0.46 0.43 0.45 0.31 0.19 0.15
0.00 0.00 0.00 0.00 0.00 0.00 0.00 0.00 0.00 0.00 0.01 0.02 0.03 0.02 0.02 0.03 0.06 0.06 0.09 0.09 0.11 0.24 0.30 0.23 0.28 0.38 0.44 0.56 0.66 0.84 0.76 0.56 0.58 0.58 0.50 0.45 0.37 0.37 0.31 0.26 0.29 0.41 0.43
0.00 0.00 0.00 0.00 0.00 0.00 0.00 0.00 0.01 0.01 0.01 0.02 0.02 0.02 0.02 0.03 0.06 0.07 0.10 0.15 0.16 0.22 0.24 0.21 0.30 0.33 0.38 0.40 0.48 0.66 0.74 0.77 0.71 0.63 0.61 0.62 0.60 0.55 0.60 0.76 0.97 0.73 0.61
0.00 0.00 0.00 0.01 0.00 0.00 0.00 0.01 0.01 0.02 0.04 0.03 0.01 0.01 0.04 0.05 0.07 0.09 0.12 0.14 0.17 0.18 0.22 0.27 0.40 0.37 0.34 0.35 0.39 0.42 0.47 0.62 0.67 0.76 0.71 0.73 0.74 0.65 0.50 0.29 0.28 0.26 0.29
0.01 0.01 0.00 0.00 0.00 0.00 0.01 0.02 0.01 0.05 0.07 0.03 0.01 0.02 0.03 0.05 0.08 0.10 0.10 0.08 0.14 0.20 0.21 0.25 0.35 0.50 0.45 0.40 0.45 0.47 0.52 0.52 0.56 0.47 0.48 0.61 0.79 0.81 0.75 0.63 0.44 0.20 0.11
0.00 0.00 0.00 0.00 0.00 0.01 0.02 0.02 0.03 0.07 0.07 0.02 0.01 0.03 0.03 0.04 0.07 0.09 0.12 0.12 0.13 0.15 0.23 0.33 0.33 0.44 0.45 0.40 0.45 0.56 0.66 0.67 0.58 0.54 0.51 0.52 0.49 0.51 0.49 0.49 0.49 0.41 0.32
0.01 0.00 0.00 0.00 0.00 0.01 0.02 0.03 0.03 0.06 0.08 0.03 0.01 0.01 0.03 0.05 0.06 0.09 0.10 0.13 0.15 0.14 0.19 0.25 0.29 0.30 0.31 0.41 0.51 0.56 0.54 0.45 0.41 0.36 0.34 0.36 0.30 0.24 0.28 0.34 0.34 0.31 0.31
0.00 0.00 0.00 0.01 0.01 0.01 0.02 0.03 0.03 0.05 0.10 0.06 0.03 0.02 0.02 0.03 0.05 0.08 0.10 0.13 0.15 0.16 0.20 0.21 0.22 0.21 0.19 0.23 0.31 0.38 0.37 0.33 0.26 0.22 0.23 0.25 0.27 0.30 0.28 0.18 0.19 0.21 0.18
0.00 0.00 0.01 0.03 0.01 0.01 0.02 0.04 0.03 0.05 0.08 0.11 0.07 0.03 0.03 0.04 0.09 0.08 0.08 0.11 0.14 0.16 0.13 0.14 0.16 0.17 0.18 0.23 0.24 0.25 0.26 0.27 0.27 0.29 0.19 0.17 0.19 0.18 0.18 0.17 0.13 0.08 0.06
0.00 0.00 0.01 0.04 0.04 0.02 0.03 0.06 0.07 0.10 0.13 0.12 0.07 0.04 0.04 0.05 0.07 0.07 0.08 0.09 0.11 0.09 0.07 0.08 0.10 0.14 0.16 0.17 0.17 0.18 0.21 0.21 0.20 0.17 0.16 0.14 0.13 0.12 0.13 0.14 0.11 0.09 0.08
0.00 0.00 0.01 0.02 0.03 0.04 0.08 0.11 0.11 0.14 0.11 0.06 0.06 0.04 0.03 0.04 0.04 0.05 0.04 0.05 0.06 0.03 0.03 0.05 0.07 0.09 0.12 0.12 0.12 0.11 0.13 0.16 0.15 0.13 0.11 0.11 0.09 0.09 0.07 0.08 0.10 0.11 0.10
0.00 0.01 0.01 0.01 0.01 0.02 0.05 0.07 0.07 0.08 0.07 0.06 0.06 0.05 0.03 0.02 0.02 0.01 0.01 0.01 0.01 0.02 0.03 0.01 0.01 0.01 0.02 0.04 0.06 0.07 0.08 0.10 0.11 0.10 0.09 0.09 0.08 0.06 0.07 0.06 0.05 0.05 0.04
0.00 0.00 0.01 0.00 0.01 0.02 0.02 0.02 0.02 0.03 0.04 0.04 0.04 0.05 0.05 0.03 0.02 0.02 0.00 0.00 0.01 0.03 0.04 0.04 0.03 0.01 0.01 0.00 0.01 0.02 0.03 0.05 0.06 0.07 0.07 0.07 0.07 0.05 0.05 0.04 0.04 0.02 0.01
0.00 0.00 0.00 0.00 0.00 0.00 0.00 0.01 0.01 0.02 0.02 0.03 0.03 0.04 0.05 0.02 0.02 0.03 0.02 0.02 0.02 0.02 0.01 0.01 0.01 0.00 0.00 0.00 0.00 0.00 0.00 0.00 0.01 0.01 0.02 0.02 0.03 0.02 0.02 0.02 0.03 0.03 0.04
0.00 0.00 0.00 0.00 0.00 0.00 0.00 0.00 0.01 0.01 0.02 0.02 0.04 0.04 0.02 0.01 0.02 0.02 0.03 0.03 0.02 0.01 0.01 0.01 0.00 0.00 0.00 0.00 0.00 0.00 0.00 0.00 0.00 0.00 0.00 0.01 0.01 0.01 0.01 0.01 0.02 0.03 0.05
0.01 0.00 0.00 0.00 0.00 0.00 0.00 0.00 0.00 0.01 0.01 0.01 0.03 0.04 0.02 0.01 0.01 0.01 0.02 0.02 0.02 0.01 0.01 0.01 0.01 0.01 0.01 0.00 0.00 0.01 0.01 0.01 0.01 0.01 0.02 0.02 0.03 0.03 0.04 0.04 0.05 0.07 0.08
0.00 0.01 0.00 0.00 0.00 0.00 0.00 0.00 0.00 0.00 0.01 0.01 0.01 0.01 0.01 0.01 0.01 0.01 0.02 0.02 0.01 0.01 0.01 0.00 0.01 0.02 0.01 0.01 0.01 0.00 0.00 0.01 0.01 0.01 0.01 0.02 0.02 0.03 0.03 0.03 0.04 0.05 0.06
0.01 0.01 0.01 0.01 0.01 0.00 0.01 0.01 0.01 0.01 0.01 0.01 0.01 0.01 0.01 0.01 0.01 0.01 0.02 0.02 0.01 0.02 0.01 0.01 0.01 0.01 0.01 0.01 0.01 0.00 0.00 0.01 0.01 0.00 0.00 0.01 0.01 0.02 0.02 0.01 0.01 0.01 0.02
0.01 0.02 0.02 0.01 0.01 0.01 0.01 0.01 0.01 0.01 0.01 0.01 0.01 0.01 0.01 0.01 0.01 0.02 0.02 0.02 0.01 0.01 0.02 0.01 0.01 0.01 0.01 0.01 0.01 0.01 0.00 0.00 0.00 0.00 0.00 0.00 0.00 0.00 0.00 0.00 0.00 0.00 0.00
0.01 0.01 0.01 0.01 0.00 0.01 0.01 0.02 0.02 0.03 0.03 0.02 0.01 0.01 0.01 0.01 0.01 0.01 0.01 0.01 0.01 0.02 0.02 0.02 0.01 0.01 0.00 0.00 0.00 0.00 0.00 0.00 0.00 0.00 0.00 0.00 0.00 0.00 0.00 0.00 0.00 0.00 0.00